Regional Weather Roundup
Issued by NWS Burlington, VT

Current Version | Previous Version | Text Only | Print | Product List | Glossary On
Versions: 1 2 3 4 5 6 7 8 9 10 11 12 13 14 15 16 17 18 19 20 21 22 23 24 25 26 27 28 29 30 31 32 33 34 35 36 37 38 39 40 41 42 43 44 45 46 47 48 49 50
000
ASUS41 KBTV 261110
RWRBTV
VERMONT REGIONAL WEATHER ROUNDUP
NATIONAL WEATHER SERVICE BURLINGTON VT
700 AM EDT SAT JUL 26 2014

NOTE: "FAIR" INDICATES FEW OR NO CLOUDS BELOW 12,000 FEET WITH NO
SIGNIFICANT WEATHER AND/OR OBSTRUCTIONS TO VISIBILITY.

* THESE REPORTS ARE NOT UNDER NWS QUALITY CONTROL AND/OR DO NOT
  REPORT WEATHER SUCH AS PRECIPITATION AND FOG.

VTZ001>019-261200-
_____VERMONT_____


CITY           SKY/WX    TMP DP  RH WIND       PRES   REMARKS
BURLINGTON     MOSUNNY   62  56  80 N3        29.91F
MONTPELIER     MOSUNNY   54  54 100 CALM      29.98S
MORRISVILLE    MOSUNNY   54  53  97 CALM      29.95S FOG
ST. JOHNSBURY*   N/A     54  53  97 MISG      29.93F
LYNDONVILLE*   FOG       54  51  92 CALM      29.97S VSB<1/4
MIDDLEBURY*    FAIR      59  59  99 CALM      29.93F
RUTLAND*       MOSUNNY   55  54  94 S5        29.96S
SPRINGFIELD    PTSUNNY   54  54 100 CALM      29.98S
HIGHGATE*      FAIR      61  55  78 S3        29.90S
NEWPORT*       FAIR     N/A N/A N/A S3        29.94S
BENNINGTON     PTSUNNY   58  56  93 CALM      29.97S FOG

_____LAKE CHAMPLAIN_____


CITY           SKY/WX    TMP DP  RH WIND       PRES   REMARKS
COLCHESTER RF*   N/A     66  57  72 S15         N/A
DIAMOND ISL*     N/A     63  57  82 S9          N/A

$$

NYZ007-026>031-035-052-083-261200-
_____NORTHERN NEW YORK_____


CITY           SKY/WX    TMP DP  RH WIND       PRES   REMARKS
PLATTSBURGH    MOSUNNY   59  56  89 CALM      29.90S
SARANAC LAKE   SUNNY     49  46  90 S3        29.94S
MASSENA        MOSUNNY   61  56  83 SW7       29.90R
OGDENSBURG*    SUNNY     63  61  94 SW6       29.90S
POTSDAM*       MOSUNNY   64  57  77 SW10      29.91S
WATERTOWN      MOSUNNY   62  53  72 CALM      29.93S
FT DRUM        MOSUNNY   62  56  80 SW9       29.93S
ALBANY         CLOUDY    64  60  87 S3        29.97R
GLENS FALLS    MOSUNNY   57  55  93 CALM      29.95S FOG

$$
NHZ002-005-011-261200-
_____NEW HAMPSHIRE_____


CITY           SKY/WX    TMP DP  RH WIND       PRES   REMARKS
LEBANON        FOG       57  55  93 CALM      29.96S VSB 1/4
KEENE          CLOUDY    57  48  72 CALM      29.99R VSB<1/4
MT WASHINGTON  CLOUDY    43  41  93 W36         N/A
PLYMOUTH       FOG       55  55  97 CALM      29.96S VSB 1/4
WHITEFIELD     MOSUNNY   52  49  89 CALM      29.95S

$$

_____REGIONAL QUEBEC LOCATIONS_____


CITY           SKY/WX    TMP DP  RH WIND       PRES   REMARKS
MONTREAL       CLOUDY    64  57  77 SW9       29.87S
QUEBEC CITY    PTSUNNY   61  55  82 W9        29.82S
SHERBROOKE     MOSUNNY   57  54  88 W2        29.90S

_____REGIONAL ONTARIO LOCATIONS_____


CITY           SKY/WX    TMP DP  RH WIND       PRES   REMARKS
OTTAWA         MOSUNNY   59  55  88 S5        29.88S

______KEY______
VSB  - VISIBILITY IN MILES
WCI  - WIND CHILL INDEX
HX   - HEAT INDEX
$$



USA.gov is the U.S. government's official web portal to all federal, state and local government web resources and services.